TimeMST,TemperatureF,Dew PointF,Humidity,Sea Level PressureIn,VisibilityMPH,Wind Direction,Wind SpeedMPH,Gust SpeedMPH,PrecipitationIn,Events,Conditions,WindDirDegrees,DateUTC
12:53 AM,62.1,28.9,29,29.77,10.0,South,6.9,-,N/A,,Clear,180,2013-09-25 07:53:00
1:53 AM,54.0,33.1,45,29.79,10.0,Calm,Calm,-,N/A,,Clear,0,2013-09-25 08:53:00
2:53 AM,52.0,33.1,49,29.78,10.0,SSW,6.9,-,N/A,,Clear,200,2013-09-25 09:53:00
3:53 AM,50.0,33.1,52,29.77,10.0,WNW,3.5,-,N/A,,Clear,300,2013-09-25 10:53:00
4:53 AM,51.1,34.0,52,29.75,10.0,South,4.6,-,N/A,,Clear,180,2013-09-25 11:53:00
5:53 AM,57.0,36.0,45,29.73,10.0,South,5.8,-,N/A,,Clear,180,2013-09-25 12:53:00
6:53 AM,53.1,35.1,50,29.77,10.0,ENE,6.9,-,N/A,,Clear,60,2013-09-25 13:53:00
7:53 AM,64.0,37.9,38,29.76,10.0,South,11.5,-,N/A,,Clear,170,2013-09-25 14:53:00
8:53 AM,66.9,41.0,39,29.76,10.0,South,13.8,19.6,N/A,,Clear,190,2013-09-25 15:53:00
9:53 AM,71.1,39.0,31,29.75,10.0,South,11.5,-,N/A,,Clear,190,2013-09-25 16:53:00
10:53 AM,73.0,33.1,23,29.74,10.0,South,13.8,24.2,N/A,,Clear,190,2013-09-25 17:53:00
11:53 AM,75.0,34.0,22,29.70,10.0,SSW,15.0,24.2,N/A,,Clear,200,2013-09-25 18:53:00
12:53 PM,75.9,33.1,21,29.66,10.0,South,18.4,29.9,N/A,,Clear,180,2013-09-25 19:53:00
1:53 PM,75.0,30.9,20,29.66,10.0,South,19.6,31.1,N/A,,Clear,180,2013-09-25 20:53:00
2:53 PM,75.0,32.0,21,29.65,10.0,South,20.7,31.1,N/A,,Clear,180,2013-09-25 21:53:00
3:53 PM,73.9,33.1,22,29.65,10.0,South,12.7,27.6,N/A,,Clear,190,2013-09-25 22:53:00
4:53 PM,73.0,35.1,25,29.65,10.0,SSW,17.3,27.6,N/A,,Clear,210,2013-09-25 23:53:00
5:53 PM,70.0,33.1,26,29.63,10.0,South,15.0,23.0,N/A,,Clear,190,2013-09-26 00:53:00
6:53 PM,66.9,35.1,31,29.65,10.0,SSW,9.2,-,N/A,,Clear,200,2013-09-26 01:53:00
7:53 PM,64.9,35.1,33,29.63,10.0,SSE,4.6,-,N/A,,Clear,150,2013-09-26 02:53:00
8:53 PM,64.9,34.0,32,29.62,10.0,South,8.1,17.3,N/A,,Clear,170,2013-09-26 03:53:00
9:53 PM,64.0,37.0,37,29.62,10.0,SSW,9.2,17.3,N/A,,Clear,200,2013-09-26 04:53:00
10:53 PM,64.0,37.0,37,29.61,10.0,South,16.1,24.2,N/A,,Clear,190,2013-09-26 05:53:00
11:53 PM,63.0,37.0,38,29.60,10.0,South,8.1,17.3,N/A,,Clear,190,2013-09-26 06:53:00